カタログに戻る

TIANLIAN-2 03

運用中通信GEO
NORAD 53100·PAYLOAD·🇨🇳 China

打ち上げ Jul 12, 2022 から Xichang Satellite Launch Center

Loading…

TLE

最新Source: Space-Track

元期: Sep 14, 2026, 22:24 UTC

1 53100U 22078A   26257.93361412  .00000065  00000-0  00000-0 0  9990
2 53100   0.8944  77.7882 0001597 145.2905 117.5005  1.00272715 15441

AllMySatでTIANLIAN-2 03をリアルタイム追跡

Download on the App Store